Regional Weather Roundup
Issued by NWS Northern Indiana

Home | Current Version | Previous Version | Text Only | Print | Product List | Glossary Off
Versions: 1 2 3 4 5 6 7 8 9 10 11 12 13 14 15 16 17 18 19 20 21 22 23 24 25 26 27 28 29 30 31 32 33 34 35 36 37 38 39 40 41 42 43 44 45 46 47 48 49 50

000
ASUS43 KIWX 031600
RWRIWX

KIWX WEATHER ROUNDUP
NATIONAL WEATHER SERVICE NORTHERN INDIANA
1200 PM EDT FRI JUL 03 2015

NOTE: "FAIR" INDICATES FEW OR NO CLOUDS BELOW 12,000 FEET WITH NO
SIGNIFICANT WEATHER AND/OR OBSTRUCTIONS TO VISIBILITY.

* THESE STATIONS ARE NOT UNDER NWS QUALITY CONTROL. THEY ALSO MAY NOT
  REPORT WEATHER SUCH AS PRECIPITATION OR FOG.

INZ001>027-031700-
NORTHERN INDIANA

CITY           SKY/WX    TMP DP  RH WIND       PRES   REMARKS
GARY*          PTSUNNY   70  61  73 MISG      29.98S
SOUTH BEND     MOSUNNY   71  54  54 E3        29.98S
ELKHART*       SUNNY     72  55  56 CALM      29.99R
GOSHEN         PTSUNNY   71  55  56 E10       29.97S
ANGOLA*          N/A     68  54  60 SE7       29.98S
FORT WAYNE     PTSUNNY   71  58  63 E12       29.96S
PERU/GRISSOM   PTSUNNY   69  59  71 NE7       29.95R

$$
INZ028>050-031700-
CENTRAL INDIANA

CITY           SKY/WX    TMP DP  RH WIND       PRES   REMARKS
LAFAYETTE      CLOUDY    70  59  68 NE8       29.93S
KOKOMO*        PTSUNNY   70  61  73 E10       29.94S
MUNCIE*        PTSUNNY   70  60  70 E8        29.94S
INDIANAPOLIS   CLOUDY    68  60  75 N8        29.90R

$$
MIZ043>046-050>051-056>058-064>065-071>073-077>080-031700-
SOUTHWEST LOWER MICHIGAN

CITY           SKY/WX    TMP DP  RH WIND       PRES   REMARKS
BATTLE CREEK   MOSUNNY   70  51  51 VRB3      29.99F
BENTON HARBOR  MOSUNNY   72  56  57 CALM      29.98S
COLDWATER*     MOSUNNY   70  51  52 E6        29.99R
HILLSDALE*     SUNNY     69  51  53 E6        29.99S
HOLLAND        PTSUNNY   73  49  42 E6        29.99F
GRAND RAPIDS   PTSUNNY   70  52  52 VRB6      29.99F
KALAMAZOO      PTSUNNY   71  54  54 VRB6      29.99S
STURGIS*       PTSUNNY   70  55  60 E7        29.98R
THREE RIVERS*  FAIR      69  55  61 E7        29.98S

$$
OHZ001>008-015>018-024>025-031700-
NORTHWEST OHIO

CITY           SKY/WX    TMP DP  RH WIND       PRES   REMARKS
DEFIANCE       MOSUNNY   70  56  61 SE9       29.97S
FINDLAY        MOSUNNY   71  55  56 VRB6      29.95S
TOLEDO EXPRESS PTSUNNY   71  57  61 NE7       29.97S
TOLEDO METCALF MOSUNNY   71  56  58 NE7       29.97F
LIMA           CLOUDY    69  57  65 NE6       29.96S

$$
AND FOR LAKE MICHIGAN COASTAL AND OPEN LAKE BUOY OBSERVATIONS

STATION/POSITION TEMP    WIND        PRES    VSBY  WAVE
                 AIR SEA DIR/SP/G                  HT/PER
                 (F)     (DEG/KT/KT) (MB)    (MI)  (FT/S)
CALUMET HARBOR    65      20/  5/  6   N/A
MICHIGAN CITY     68      50/  2/  6   N/A
BURNS HARBOR      66     360/  5/  7 1015.6S
SAINT JOSEPH      63     360/  2/  4   N/A
4 MI NW BRIDGMAN  63 63                N/A           1
MICHIGAN CITY     63 64   10/  6/  8   N/A           1/ 4

$$
&&



USA.gov is the U.S. government's official web portal to all federal, state and local government web resources and services.